Theta_e
296 296 297 294 293 291 291 288 285 284 285 284 284 284 285 285 284 284 284 283 283 283
294 294 293 291 290 289 288 285 284 283 283 284 284 284 284 283 283 283 283 282 282 281
293 293 291 288 287 286 284 284 283 283 282 283 283 282 283 282 282 282 282 281 281 280
291 291 289 288 286 285 284 283 282 282 281 282 281 282 282 281 281 281 280 281 280 279
289 288 287 286 285 284 283 283 282 281 281 281 281 281 281 280 280 280 280 279 279 278
288 287 287 286 284 283 283 282 281 281 281 281 281 281 281 281 280 280 280 279 278 278
287 287 287 285 284 283 282 281 281 281 280 280 280 280 280 279 279 279 279 279 279 278
287 286 285 284 283 282 281 281 281 280 280 280 280 280 279 279 279 279 278 278 278 278
285 285 284 283 282 281 280 280 280 280 279 279 279 283 283 280 279 278 278 277 277 277
284 283 283 282 281 280 280 280 279 279 279 279 279 285 284 282 279 279 278 277 277 277
283 282 282 281 281 280 280 279 279 279 279 279 279 285 285 282 279 279 278 277 277 277
282 281 281 281 280 280 279 279 279 279 279 279 279 285 286 283 279 279 278 277 277 277
282 281 280 281 280 280 280 279 279 279 279 279 279 286 286 285 281 280 279 278 277 278
281 280 280 280 281 280 279 279 278 278 278 278 279 283 287 287 282 281 280 279 278 278
Wind_Speed
10 7 7 10 9 8 8 8 9 8 10 10 10 9 8 6 6 7 6 9 6 6
7 8 7 8 7 5 5 5 7 8 11 10 11 10 10 8 9 8 7 8 8 7
10 10 9 9 9 8 6 9 9 8 9 9 10 9 9 8 8 9 6 6 9 8
9 10 9 9 8 8 8 9 9 10 10 11 11 9 9 9 10 10 9 8 9 8
11 11 10 10 10 10 11 9 8 10 10 11 10 11 12 12 10 11 11 9 8 8
12 12 13 13 12 12 12 11 10 11 13 13 11 12 11 11 11 9 9 9 9 9
12 13 13 12 12 13 14 14 13 12 12 12 12 11 10 11 10 9 8 8 7 8
13 12 11 12 13 13 14 13 13 12 10 11 11 9 12 11 10 10 9 6 6 6
12 12 12 12 12 13 13 12 13 13 13 13 9 19 19 13 10 9 8 8 5 5
12 13 13 12 13 13 14 14 14 13 12 12 8 20 20 18 9 9 7 7 6 6
12 12 12 13 13 13 12 14 13 12 11 10 9 21 21 19 9 6 6 6 7 7
10 10 11 12 12 11 11 11 11 10 10 10 10 22 22 16 8 7 5 6 6 6
11 11 11 11 11 10 10 9 8 9 9 10 10 20 22 15 6 7 6 6 6 11
9 10 10 10 9 9 10 9 8 9 8 8 10 14 21 20 7 6 6 6 5 6
Wind_Direction
170 176 180 177 174 181 184 178 167 158 149 146 141 139 138 131 125 125 125 129 112 115
163 163 164 166 165 171 158 140 157 155 143 146 138 140 135 132 129 126 123 113 106 100
170 168 162 157 163 161 144 145 153 147 141 139 130 130 127 122 124 118 111 115 120 110
168 163 158 166 160 157 141 154 162 151 147 142 137 133 127 126 130 126 128 128 128 125
164 162 165 167 165 160 155 157 160 148 148 142 150 144 144 144 148 146 146 142 133 141
173 174 176 171 165 162 158 162 159 163 159 157 168 152 150 150 149 145 145 150 153 159
182 184 182 172 168 167 166 166 172 173 168 164 158 155 147 144 145 146 150 159 166 161
181 180 174 170 172 169 174 175 169 164 166 161 155 161 154 151 150 151 158 155 169 171
176 175 176 174 171 168 170 168 164 168 171 165 162 170 162 152 151 154 157 169 169 171
174 176 176 170 170 172 175 168 173 170 167 166 157 172 164 160 154 154 169 157 179 188
174 175 170 170 175 175 173 176 172 164 165 162 168 175 166 161 151 158 159 173 184 196
166 166 168 174 172 168 165 168 167 162 153 160 170 175 169 160 144 169 173 180 190 202
163 162 167 169 163 159 152 145 148 155 166 165 166 175 173 166 156 162 184 191 200 215
148 151 150 147 145 142 140 139 148 157 158 159 169 177 184 180 173 175 192 196 196 202